Date,TemperatureHighF,TemperatureAvgF,TemperatureLowF,DewpointHighF,DewpointAvgF,DewpointLowF,HumidityHigh,HumidityAvg,HumidityLow,PressureMaxIn,PressureMinIn,WindSpeedMaxMPH,WindSpeedAvgMPH,GustSpeedMaxMPH,PrecipitationSumIn
2013-2-2,46,35,21,38,16,8,85,47,26,30.47,30.09,18,3,25,0.00
2013-2-3,50,43,36,37,32,26,90,67,42,30.09,29.90,12,4,18,0.19
2013-2-4,49,39,28,28,25,22,87,58,36,30.20,30.03,10,2,10,0.00
2013-2-5,62,48,37,39,34,28,81,59,37,30.08,29.92,17,3,17,0.00
2013-2-6,64,51,39,37,31,22,81,50,22,30.32,30.01,14,3,14,0.00
2013-2-7,48,43,38,43,39,34,95,85,68,30.36,30.01,19,7,19,0.28
2013-2-8,55,44,40,46,41,29,95,90,57,30.10,29.83,19,8,24,0.43
2013-2-9,54,43,34,30,24,18,81,51,25,30.41,30.09,16,3,16,0.00
2013-2-10,54,42,30,41,24,20,85,50,28,30.54,30.26,10,3,10,0.03
2013-2-11,49,47,45,46,44,41,91,89,85,30.26,30.20,7,2,7,0.03
2013-2-12,61,55,47,54,38,27,94,58,28,30.12,29.94,9,3,13,0.00
2013-2-13,51,47,44,47,44,36,96,90,57,30.00,29.65,16,3,16,0.09
2013-2-14,51,43,35,38,34,31,90,71,50,30.12,29.87,8,2,10,0.00
2013-2-15,62,48,33,40,34,31,92,63,32,30.14,29.97,10,1,10,0.00
2013-2-16,48,37,31,37,33,26,95,84,62,30.00,29.86,12,4,12,0.16
2013-2-17,39,31,26,26,16,8,81,54,28,30.35,29.97,23,4,23,0.00
2013-2-18,52,37,21,27,18,10,89,51,26,30.48,30.32,12,2,12,0.01
2013-2-19,53,44,35,50,39,26,94,83,64,30.32,29.91,18,5,18,0.07
2013-2-20,53,43,34,42,21,14,91,44,23,30.18,30.01,17,3,17,0.00
2013-2-21,57,43,28,24,19,15,82,42,20,30.30,30.16,13,3,15,0.00
2013-2-22,44,36,33,36,31,23,96,83,44,30.40,30.18,15,4,16,0.47
2013-2-23,44,40,37,43,39,36,96,96,95,30.18,29.88,10,2,10,0.78
2013-2-24,64,47,43,47,42,27,97,86,29,30.08,29.83,15,2,15,0.02
2013-2-25,48,39,34,30,25,21,69,58,45,30.28,30.08,29,6,29,0.00
2013-2-26,61,44,36,60,40,27,97,86,65,30.18,29.60,27,10,32,1.03
2013-2-27,60,50,43,46,41,37,96,74,50,29.84,29.67,24,5,24,0.00
2013-2-28,50,44,39,40,33,27,90,66,42,29.90,29.74,13,3,15,0.00